Flag for Switzerland Weather past 2 weeks in Riehen, Basel-Stadt, Switzerland

Now
60 °F

Cool.


Feels Like: 60 °F
Forecast: 58 / 81 °F
Wind: 2 mph from West

Location: Bale-Mulhouse

Current Time: Aug 1, 2014 at 2:52:57 AM

Latest Report: Aug 1, 2014 at 2:00 AM


Visibility: 4 mi

Pressure: 29.93 "Hg

Humidity: 95%

Dew point: 58 °F

Location of RiehenLocation

Historic Weather in Riehen — Graph

°F

Riehen temperature yesterday

Maximum temperature yesterday: 77 °F (at 5:00 PM)
Minimum temperature yesterday: 61 °F (at 7:00 AM)
Average temperature yesterday: 68 °F

Past Weeks' High & Low Weather Summary

 TemperatureHumidityPressure
High92 °F (Jul 18, 5:00 PM)97% (Jul 17, 7:00 AM)30.18 "Hg (Jul 17, 7:00 AM)
Low55 °F (Jul 25, 6:00 AM)19% (Jul 18, 5:00 PM)29.78 "Hg (Jul 19, 7:00 PM)
Average68 °F79%29.93 "Hg
* Reported Jul 17 1:00 AM — Aug 1 1:00 AM, Riehen, Weather by CustomWeather, © 2014

Note: Actual official high and low records may vary slightly from our data, if they occured in-between our weather recording intervals... More about our weather records

Advertising

Riehen weather history for previous 24 hours

 ConditionsComfort  
Time TempWeatherWind HumidityBarometerVisibility
1:00 AM
Aug 1
62 °FCool.1 mph92%29.93 "Hg7 mi
12:00 AM64 °FPassing clouds.3 mph91%29.93 "Hg12 mi
11:00 PM
Jul 31
65 °FPassing clouds.3 mph88%29.92 "Hg19 mi
10:00 PM66 °FPassing clouds.5 mph84%29.92 "Hg19 mi
9:00 PM69 °FPartly sunny.5 mph78%29.90 "Hg19 mi
8:00 PM73 °FScattered clouds.7 mph66%29.89 "Hg25 mi
7:00 PM76 °FPassing clouds.8 mph58%29.89 "Hg25 mi
6:00 PM77 °FPassing clouds.7 mph56%29.89 "Hg25 mi
5:00 PM77 °FPassing clouds.6 mph55%29.91 "Hg25 mi
4:00 PM76 °FScattered clouds.6 mph56%29.92 "Hg19 mi
3:00 PM75 °FScattered clouds.6 mph63%29.93 "Hg19 mi
2:00 PM74 °FScattered clouds.5 mph62%29.95 "Hg16 mi
1:00 PM72 °FScattered clouds.6 mph70%29.97 "Hg12 mi
12:00 PM70 °FScattered clouds.6 mph78%29.98 "Hg9 mi
11:00 AM68 °FPartly sunny.3 mph81%29.99 "Hg7 mi
10:00 AM65 °FLow clouds.2 mph87%30.01 "Hg5 mi
9:00 AM63 °FFog.2 mph95%30.01 "Hg2 mi
8:00 AM62 °FFog.3 mph97%30.01 "Hg2 mi
7:00 AM61 °FLow clouds.1 mph97%30.00 "Hg4 mi
6:00 AM61 °FOvercast.2 mph96%29.99 "Hg3 mi
5:00 AM62 °FOvercast.2 mph95%29.98 "Hg4 mi
4:00 AM64 °FOvercast.2 mph95%29.98 "Hg4 mi
3:00 AM64 °FOvercast.2 mph94%29.98 "Hg6 mi
2:00 AM65 °FOvercast.1 mph94%29.98 "Hg6 mi
Weather by CustomWeather, © 2014

See weather overviewHow to use our weather pages